Location: Atherton
(17.2661°S, 145.4859°E)
Time: 23:45:58
(UTC+10:00)

Vanguard 1 - Pass Details

Date: 28 June 2025
Orbit: 649 x 3822 km, 34.2° (Epoch: 17 July)

Event Time Altitude Azimuth Distance (km) Brightness Sun altitude
Rises 02:35:55 0° 246° (WSW) 3,339 - -57.9°
Reaches altitude 10° 02:38:41 10° 253° (WSW) 2,209 - -57.3°
Maximum altitude 02:43:10 43° 324° (NW) 910 - -56.3°
Drops below altitude 10° 02:47:27 10° 37° (NE) 2,109 - -55.3°
Sets 02:50:02 0° 44° (NE) 3,167 - -54.7°
